OpenBCM V2.0.2 (Linux)

Packet Radio Mailbox

IZ3LSV

[San Dona' di P. JN]

 Login: GUEST





  
LU9DCE > KEP      21.12.19 18:12l 244 Lines 12037 Bytes #999 (0) @ WW
BID : 5613_LU9DCE
Read: GUEST
Subj: TLE 21 12
Path: IZ3LSV<IK6IHL<IK7NXU<HB9CSR<IW8PGT<IR2UBX<DB0RES<ON0AR<GB7CIP<N7HPX<
      LU9DCE
Sent: 191221/1600Z 5613@LU9DCE.TOR.BA.ARG.SOAM LinBPQ6.0.19

            __    _  _  ___  ____   ___  ____    ____  ____  ____
           (  )  / )( \/ _ \(    \ / __)(  __)  (  _ \(  _ \/ ___)
           / (_/\) \/ (\__  )) D (( (__  ) _)    ) _ ( ) _ (\___ \
           \____/\____/(___/(____/ \___)(____)  (____/(____/(____/
               ESTACION DE PACKET RADIO - BUENOS AIRES (GF05OM)
                   BOLETINES INFORMATIVOS PROGRAMADOS (BIP)
                      LINUX - HELLOCODELINUX@GMAIL.COM
+----------------------------------------------------------------------------+
OSCAR 7
1  7530U 74089B   19355.50313300 -.00000042  00000-0  18094-4 0  9994
2  7530 101.7742 321.4414 0012285 350.0777 156.9876 12.53641241 63803
OSCAR 11 (UoSAT 2)
1 14781U 84021B   19355.10083955  .00000093  00000-0  17561-4 0  9996
2 14781  97.5989  10.9205 0009908  73.9118 286.3187 14.83129066926240
OSCAR 19 (LUSAT)
1 20442U 90005G   19354.84979149 -.00000016 +00000-0 +10717-4 0  9997
2 20442 098.6708 296.7120 0011216 328.8207 031.2310 14.32940801562836
EYESAT A
1 22825U 93061C   19355.47050805  .00000002  00000-0  18717-4 0  9990
2 22825  98.9170 348.4784 0008500 171.2207 188.9125 14.30073896368503
ITAMSAT
1 22826U 93061D   19354.93920411  .00000010  00000-0  21905-4 0  9992
2 22826  98.9109 347.9028 0009203 162.0040 198.1469 14.30408435368634
RADIO ROSTO
1 23439U 94085A   19354.87902760 -.00000020 +00000-0 +62748-3 0  9991
2 23439 064.8125 176.6512 0145951 076.9460 284.7711 11.27569410028774
JAS 2
1 24278U 96046B   19354.85477905 -.00000039 +00000-0 -67529-5 0  9993
2 24278 098.5637 123.4035 0351164 119.9899 243.6582 13.53094947152594
TECHSAT 1B
1 25397U 98043D   19354.87943187 -.00000018 +00000-0 +11393-4 0  9990
2 25397 098.7095 292.9334 0000951 164.8787 195.2420 14.23676378114000
ISS (ZARYA)
1 25544U 98067A   19355.61517352  .00000266  00000-0  12663-4 0  9999
2 25544  51.6432 152.1291 0007813  58.9619  16.9688 15.50125072204339
PCSAT
1 26931U 01043C   19354.91229420 -.00000029 +00000-0 +20760-4 0  9991
2 26931 067.0511 245.7154 0007025 263.8877 096.1424 14.30562204951396
SAUDISAT 1C
1 27607U 02058C   19355.45037087 -.00000039  00000-0  15282-4 0  9999
2 27607  64.5536 201.6570 0069050 219.7920 139.8108 14.75596363914445
CUTE-1
1 27844U 03031E   19355.45673068  .00000053  00000-0  43395-4 0  9990
2 27844  98.6835   0.8876 0009342 208.4202 151.6467 14.22211848854696
CUBESAT XI 4
1 27848U 03031J   19355.50198191  .00000034  00000-0  35168-4 0  9997
2 27848  98.6908   1.4676 0009054 220.7512 139.2989 14.21802465854542
MOZHAYETS 4
1 27939U 03042A   19355.39176953  .00000068  00000-0  20849-4 0  9996
2 27939  98.0653 127.8910 0012750 194.6173 165.4668 14.66825202867763
CUBESAT XI 5
1 28895U 05043F   19355.38272703  .00000099  00000-0  27890-4 0  9997
2 28895  97.9838 132.0556 0017928 123.6845 236.6070 14.63722316754641
CUTE-1.7+APD II
1 32785U 08021C   19355.50984468  .00000204  00000-0  27609-4 0  9997
2 32785  97.5596 346.5619 0013363  13.4445 346.7126 14.88392131631323
DELFI C3
1 32789U 08021G   19354.92172376 +.00000840 +00000-0 +59555-4 0  9994
2 32789 097.4428 038.8007 0011598 204.5140 155.5538 15.07336150634760
SEEDS
1 32791U 08021J   19355.48230501  .00000407  00000-0  46585-4 0  9992
2 32791  97.5326 352.6511 0012902 345.4801  14.6045 14.90936136631796
YUBELEINY
1 32953U 08025A   19355.48181641  .00000037  00000-0  19437-3 0  9990
2 32953  82.5051  29.2194 0020364  85.4301 274.9101 12.43093107525396
PRISM (HITOMI)
1 33493U 09002B   19355.44669959 -.00000015  00000-0  43233-5 0  9995
2 33493  98.1311 283.5052 0013937 291.6214  68.3521 14.96849937592933
KKS-1 (KISEKI)
1 33499U 09002H   19355.15133193  .00000079  00000-0  19691-4 0  9994
2 33499  98.3332 199.6459 0008747 343.9426  16.1504 14.75489619586570
SWISSCUBE
1 35932U 09051B   19355.03658569  .00000100  00000-0  33689-4 0  9996
2 35932  98.5996 166.6332 0006901 323.6667  36.4061 14.56341215543752
BEESAT
1 35933U 09051C   19355.44085354  .00000100  00000-0  33622-4 0  9995
2 35933  98.6008 168.8786 0005311 339.3141  20.7840 14.56423596543923
ITUPSAT 1
1 35935U 09051E   19355.46857809  .00000080  00000-0  29531-4 0  9992
2 35935  98.6116 169.1290 0007563 334.1600  25.9218 14.55576183543660
XIWANG-1 (HOPE-1)
1 36122U 09072B   19354.73092159 -.00000042 +00000-0 -19507-6 0  9996
2 36122 100.0806 348.4633 0006930 278.4367 081.5962 13.16352365481220
TISAT 1
1 36799U 10035E   19355.02032018  .00000203  00000-0  26500-4 0  9994
2 36799  98.1751 153.6073 0012011 192.6415 167.4502 14.91230024512385
JUGNU
1 37839U 11058B   19354.94141049 +.00000312 +00000-0 +24274-4 0  9998
2 37839 019.9617 291.3919 0018912 208.6635 214.4608 14.12667277423377
SRMSAT
1 37841U 11058D   19354.70892689  .00000309  00000-0  24808-4 0  9997
2 37841  19.9735 353.4039 0012073  69.5829  86.0783 14.10646073422853
M-CUBED/EXP-1 PRIME
1 37855U 11061F   19354.87367231 +.00000971 +00000-0 +56171-4 0  9997
2 37855 101.7259 345.6627 0172103 247.7314 110.5569 15.05889725444177
HORYU 2
1 38340U 12025D   19355.42285817  .00000133  00000-0  27383-4 0  9992
2 38340  98.3072  39.3660 0010360 249.6932 110.3163 14.75789427408552
STRAND 1
1 39090U 13009E   19354.82774546  .00000016  00000-0  20840-4 0  9994
2 39090  98.4687 197.5208 0010263  97.7839 262.4513 14.35110632356948
SOMP
1 39134U 13015E   19354.79137005  .00001191  00000-0  62583-4 0  9994
2 39134  64.8622 140.5702 0038109 272.6997  86.9769 15.20587822368734
BEESAT 3
1 39135U 13015F   19354.91460891 +.00000823 +00000-0 +49633-4 0  9993
2 39135 064.8648 161.1029 0043146 275.6445 083.9761 15.17798995367966
BEESAT 2
1 39136U 13015G   19354.89059983  .00000885  00000-0  53865-4 0  9997
2 39136  64.8691 165.5578 0030774 282.1121  77.6557 15.17222643368268
CUBEBUG 1
1 39153U 13018D   19355.27388037  .00000165  00000-0  28454-4 0  9994
2 39153  97.9819  92.4022 0015950 320.5004  39.5044 14.80641484359270
ZACUBE
1 39417U 13066B   19355.48567805  .00000182  00000-0  29092-4 0  9993
2 39417  97.5611 358.5320 0059794 143.6631 216.8666 14.81194883328543
TRITON 1
1 39427U 13066M   19355.48229806  .00000144  00000-0  31310-4 0  9994
2 39427  97.7011 321.6293 0112423 291.0352  67.8859 14.67921643325593
GOMX 1
1 39430U 13066Q   19355.44168482  .00000250  00000-0  54077-4 0  9999
2 39430  97.7717 299.9894 0151936  29.0445 331.9104 14.59327185323697
HUMSAT D
1 39433U 13066T   19355.08624090  .00000272  00000-0  31695-4 0  9999
2 39433  97.5311  34.7875 0031650  44.1749 316.1990 14.92331478330724
CUBEBUG 2
1 39440U 13066AA  19354.90516410 +.00000155 +00000-0 +28538-4 0  9995
2 39440 097.6146 342.5281 0079556 202.3910 157.3821 14.75932574326093
FUNCUBE 1
1 39444U 13066AE  19354.91015581 +.00000225 +00000-0 +33747-4 0  9999
2 39444 097.5574 000.1004 0059010 138.6584 221.9119 14.82030147326778
UWE-3
1 39446U 13066AG  19354.72754350 +.00000173 +00000-0 +29479-4 0  9993
2 39446 097.5873 349.5347 0070074 175.0609 185.1310 14.78466680326019
SPROUT
1 39770U 14029E   19355.36736349  .00000550  00000-0  66643-4 0  9995
2 39770  97.8911  97.5562 0008803 189.0104 171.0946 14.87546786302435
UNISAT 6
1 40012U 14033C   19354.86170090 +.00000128 +00000-0 +26536-4 0  9998
2 40012 097.7307 213.2328 0057355 219.3193 140.3845 14.74046408295960
DUCHIFAT 1
1 40021U 14033M   19355.34421015  .00000463  00000-0  52895-4 0  9997
2 40021  97.9329 280.6107 0013325 152.3930 207.7998 14.90767017299205
QB50P1
1 40025U 14033R   19355.44386420  .00000202  00000-0  27463-4 0  9996
2 40025  97.9104 274.8374 0012695 162.0963 198.0704 14.89040948298968
CHUBUSAT 1
1 40300U 14070C   19355.29422238  .00000468  00000-0  23174-4 0  9993
2 40300  97.3088  64.6169 0020695 120.8446 280.3372 15.22294116284252
NUDT-PHONESAT
1 40900U 15049B   19355.51733758  .00001867  00000-0  81327-4 0  9991
2 40900  97.4358   3.0760 0011078 250.6244 260.6384 15.23414869235942
ZDPS 2A
1 40901U 15049C   19355.39066666  .00000756  00000-0  40471-4 0  9996
2 40901  97.4611 358.5712 0011843 278.6886 188.9172 15.17987411235401
ZDPS 2B
1 40902U 15049D   19355.36762260  .00000916  00000-0  48488-4 0  9991
2 40902  97.4581 355.9017 0011883 276.0157 191.1752 15.17895645235377
XW-2A
1 40903U 15049E   19355.36584388  .00001610  00000-0  39134-4 0  9995
2 40903  97.3150  38.9851 0012941 185.7261 301.3965 15.42439971238863
KAITUO 1A
1 40904U 15049F   19355.41049037  .00000619  00000-0  36119-4 0  9997
2 40904  97.4721 354.3087 0013083 287.4414 178.5996 15.15542884235125
OBJECT G
1 40905U 15049G   19355.36102417  .00000070  00000-0  73933-5 0  9991
2 40905  97.4783 351.6243 0014147 282.7525 187.0772 15.14416985234971
XW-2C
1 40906U 15049H   19355.44823466  .00000349  00000-0  21715-4 0  9994
2 40906  97.4727 354.5200 0013184 276.5288 242.4508 15.15864990235138
XW-2D
1 40907U 15049J   19355.46703808  .00000774  00000-0  43633-4 0  9999
2 40907  97.4706 354.2240 0012534 273.0094 241.0165 15.16074590235158
LILACSAT 2
1 40908U 15049K   19355.40032328  .00000545  00000-0  33654-4 0  9994
2 40908  97.4851 352.7589 0014324 283.5221 186.2926 15.13919286234900
XW-2F
1 40910U 15049M   19355.43726156  .00000762  00000-0  41197-4 0  9991
2 40910  97.4655 356.4876 0013098 264.1405 200.1196 15.17603376235181
XW-2B
1 40911U 15049N   19355.36780021  .00000405  00000-0  24511-4 0  9990
2 40911  97.4727 354.8072 0012476 274.7827 192.5239 15.15999959235035
KAITUO 1B
1 40912U 15049P   19355.38206898  .00000917  00000-0  45778-4 0  9994
2 40912  97.4497   0.3637 0013378 242.1373 225.2194 15.19954157235519
TIANWANG 1C (TW-1C)
1 40926U 15051B   19355.52168745  .00014305  00000-0  17927-3 0  9996
2 40926  97.1130  41.6664 0008232  49.2297  60.5494 15.59827060239082
